Regional Weather Roundup
Issued by NWS

Home | Current Version | Previous Version | Graphics & Text | Print | Product List | Glossary Off
Versions: 1 2 3 4 5 6 7 8 9 10 11 12 13 14 15 16 17 18 19 20 21 22 23 24 25 26 27 28 29 30 31 32 33 34 35 36 37 38 39 40 41 42 43 44 45 46 47 48 49 50

000
ASUS43 KTOP 190059
RWRKS

WEATHER ROUNDUP FOR KANSAS
NATIONAL WEATHER SERVICE GOODLAND KS
700 PM CST THU DEC 18 2014

NOTE:  "FAIR" INDICATES FEW OR NO CLOUDS BELOW 12,000 FEET WITH NO
SIGNIFICANT WEATHER AND/OR OBSTRUCTIONS TO VISIBILITY.

KSZ001>006-013>018-027>032-041>047-190200-
NORTHWEST KANSAS

CITY           SKY/WX    TMP DP  RH WIND       PRES   REMARKS
GOODLAND       CLEAR     25  23  92 CALM      30.09R
HAYS           CLOUDY    34  23  64 CALM      30.17S
HILL CITY      CLOUDY    32  28  85 CALM      30.16R
RUSSELL        CLOUDY    30  28  92 SE5       30.17R
$$

KSZ061>065-074>080-084>089-190200-
SOUTHWEST KANSAS

CITY           SKY/WX    TMP DP  RH WIND       PRES   REMARKS
DODGE CITY     CLOUDY    34  30  85 CALM      30.15R
ELKHART          N/A     27  21  78 S8          N/A
GARDEN CITY    CLOUDY    34  31  88 E3        30.12R
GREAT BEND     CLOUDY    30  25  80 CALM      30.20R
LIBERAL        CLOUDY    36  30  80 SE6       30.15R
$$

KSZ066>073-081>083-090>101-190200-
SOUTHEAST KANSAS

CITY           SKY/WX    TMP DP  RH WIND       PRES   REMARKS
CHANUTE        CLOUDY    34  32  92 N5        30.22R
COFFEYVILLE    CLOUDY    37  35  92 N6        30.22R
HUTCHINSON     CLOUDY    31  27  85 CALM      30.21R
MEDICINE LODGE   N/A     35  31  85 NE6       30.18R
NEWTON         CLOUDY    28  25  86 N6        30.21S
PARSONS        CLOUDY    36  34  92 N5        30.22R
WICHITA INTL   CLOUDY    33  29  85 N8        30.20R
WICHITA JABRA  CLOUDY    31  28  89 NE7       30.20S
WINFIELD       CLOUDY    35  32  88 N8        30.22R
$$

KSZ007>012-019>026-033>040-048>060-102>105-190200-
NORTHEAST KANSAS

CITY           SKY/WX    TMP DP  RH WIND       PRES   REMARKS
CONCORDIA      CLOUDY    28  26  92 S5        30.20R
EMPORIA        CLOUDY    32  30  92 NE3       30.21R
LAWRENCE       CLOUDY    32  29  88 CALM      30.24R
MANHATTAN      CLOUDY    33  28  81 NE5       30.22R
OLATHE IND     CLOUDY    32  30  92 N3        30.22R FOG
OLATHE EXE     CLOUDY    32  30  92 NE5       30.21R FOG
SALINA         CLOUDY    32  27  81 CALM      30.23R
TOPEKA BILLARD CLOUDY    33  29  85 NE3       30.24R
TOPEKA FORBES  CLOUDY    33  29  85 N5        30.22R
$$



USA.gov is the U.S. government's official web portal to all federal, state and local government web resources and services.